Temp_Advection
nan nan nan nan nan nan nan nan nan nan nan nan nan nan nan nan nan nan nan nan nan nan nan nan nan nan nan nan nan nan nan nan nan nan nan nan nan nan nan nan nan nan nan nan
nan -0 -1 -0 0 0 0 0 -0 -0 -0 0 0 -0 -1 -1 -1 -1 0 -4 -2 -1 -0 -0 -0 0 1 0 -0 0 -0 -0 0 0 0 0 0 0 0 0 0 1 1 nan
nan -1 -0 0 0 0 0 -0 -0 -0 -0 -0 0 0 -1 -1 1 -3 -3 -2 -1 -1 -1 -0 -0 0 0 -0 -0 -1 -1 -1 -0 0 0 0 0 0 0 1 1 0 1 nan
nan -0 -0 0 -0 0 -0 -0 0 0 -0 0 -0 -0 -0 -0 -0 -1 -1 -1 -1 -1 -0 -0 -0 -0 -1 -1 -1 -1 -1 -1 -1 -0 -0 0 0 0 0 0 -0 0 0 nan
nan 0 0 -0 -0 0 0 -0 -0 0 0 -0 0 -0 -0 0 -1 -0 -1 -1 -1 -1 -0 -0 -0 -0 -0 0 -0 -1 -1 -1 -1 -0 -0 -0 -0 -0 -0 0 0 -0 0 nan
nan 0 -0 -0 -0 0 -0 -0 0 0 0 -0 -1 -0 -0 -0 -0 -0 -1 -1 -1 -1 -1 -0 0 1 0 -0 -0 -0 -0 -0 -1 -1 -1 -0 -0 -0 -0 0 0 0 -0 nan
nan 0 0 0 0 0 -0 0 -0 -0 0 -0 0 -0 -0 0 0 -0 -1 -1 -1 -1 -0 0 0 -0 -1 -1 -1 -1 -1 -1 -1 -1 -0 -0 -0 -0 -0 -0 -0 0 0 nan
nan 0 0 0 -0 -0 -0 0 -0 0 -0 -1 -0 -0 -0 -0 -1 -1 -1 -1 -1 -0 -0 -0 -0 -1 -1 -1 -1 -1 -0 -1 -1 -0 -0 -0 -0 -0 -0 -0 -0 -0 0 nan
nan 0 -0 0 -0 0 -0 0 0 0 0 0 -1 -1 0 -0 -1 -0 -1 -1 -0 -0 -0 -0 -0 -0 -0 -0 -0 -1 -1 -1 -0 -0 -0 -0 -1 -1 -0 -0 -0 -0 -0 nan
nan -0 -0 -0 0 0 0 -0 -0 -0 0 -0 -0 -0 0 -1 -0 -1 -1 -0 -0 -0 -0 -0 -0 -0 -0 -0 -0 -0 -0 -0 -0 -0 -0 -1 -1 -1 -1 -1 -0 -0 -0 nan
nan 0 0 -0 0 0 0 0 -0 0 0 -0 -0 -0 -0 -0 -0 -0 -0 -0 -0 -0 -0 -0 -0 0 -0 -0 -0 -0 -0 -0 -0 -1 -1 -1 -1 -1 -1 -1 -1 -1 -1 nan
nan 0 0 -0 -0 -0 0 0 0 0 -0 -0 -0 0 -0 -0 -0 -0 -0 -0 0 0 0 0 0 -0 -0 -0 0 -0 -0 -0 -0 -0 -1 -1 -1 -1 -1 -1 -1 -1 -1 nan
nan 0 0 -1 -0 -0 0 -0 -0 0 0 -0 -0 0 -0 -0 0 0 0 0 1 0 0 0 -0 -0 -0 -0 -0 -0 -0 -0 -0 -0 0 -0 -1 -1 -1 -1 -0 -1 -1 nan
nan 0 -0 -0 -1 -0 -0 -1 -0 0 0 -0 -0 -1 -0 0 0 0 1 0 0 0 0 0 0 0 0 -0 -0 -0 -0 -1 -1 -1 -0 -0 -0 -0 -0 -0 -0 0 0 nan
nan 0 -0 -0 -0 -0 -0 -0 -0 -0 0 -0 -1 -1 -1 0 1 -0 0 -0 -0 0 0 0 0 0 0 0 -0 -0 -0 -0 -1 -1 -1 -1 -1 -1 -1 -1 -1 -1 -1 nan
nan 0 0 -0 -0 -0 -0 -0 -0 -0 -0 -0 -0 -1 -0 -1 -0 -0 -0 -0 -0 -0 -0 0 0 0 0 0 0 -0 -1 -1 -1 -1 -1 -1 -1 -1 -1 -1 -1 -1 -1 nan
nan -0 -0 -1 0 -0 -0 -2 -1 -0 -0 1 1 1 -0 -0 -0 -0 -0 -0 -0 -0 -0 -0 0 0 0 1 0 0 0 0 -0 -1 -2 -2 -2 -2 -2 -1 -1 -1 -0 nan
nan -0 -0 0 -0 -0 -2 -0 0 0 0 0 0 0 -0 0 -0 -0 0 -0 0 0 0 0 0 0 0 1 1 1 1 0 -0 -0 -1 -1 -2 -3 -3 -3 -3 -3 -3 nan
nan -0 0 0 -0 -1 -1 -0 0 0 -0 -0 0 -0 -0 -0 -0 -1 -0 0 0 0 0 0 0 0 0 0 0 1 0 0 0 -0 0 0 -1 -1 -3 -3 -4 -2 -4 nan
nan 1 0 -0 -0 -1 0 -0 0 -0 1 -0 -0 -0 0 0 0 -1 -1 0 0 0 0 0 0 0 0 0 0 0 0 0 0 -0 0 1 1 0 0 -1 -2 -2 -1 nan
nan -0 0 0 0 -0 0 0 -1 -0 -1 -0 -0 -0 0 0 -1 0 0 0 0 0 0 0 0 1 1 0 0 0 0 1 1 0 -1 -0 1 1 0 0 0 -1 -1 nan
nan -0 0 0 -0 -2 -0 -0 -0 -1 -0 -0 0 0 0 0 0 0 0 0 0 0 0 0 1 1 0 0 -0 0 1 1 1 1 1 0 0 0 0 -0 -0 0 -0 nan
nan -1 -0 -0 -1 -0 -0 -0 -1 0 0 0 0 0 0 0 0 0 0 0 0 1 1 0 0 0 1 0 -0 -1 -0 0 0 0 0 0 -0 0 -0 -1 -1 -0 0 nan
nan -0 0 0 -1 -1 -1 0 0 0 0 0 0 0 0 0 0 0 0 1 1 1 0 0 0 -0 -0 0 1 0 -1 -1 -1 -1 -0 -0 -0 -0 -0 -0 -0 -0 0 nan
nan 0 0 -1 -1 -1 -0 0 0 0 0 0 0 0 0 1 1 1 1 1 1 1 0 0 -0 -0 -0 -0 0 1 0 -0 -0 -0 -0 -0 -0 -0 -1 -0 0 0 -0 nan
nan nan nan nan nan nan nan nan nan nan nan nan nan nan nan nan nan nan nan nan nan nan nan nan nan nan nan nan nan nan nan nan nan nan nan nan nan nan nan nan nan nan nan nan
Wind_Speed
8 4 6 11 12 11 4 8 10 9 9 10 10 9 9 21 27 28 26 15 27 22 11 13 15 16 15 13 9 2 5 10 10 13 14 18 23 20 21 25 23 25 28 34
3 6 13 9 8 9 8 9 10 8 7 6 8 10 15 18 18 23 9 26 24 19 14 14 16 20 24 24 23 18 11 4 5 6 8 10 10 11 15 16 22 23 23 28
9 7 8 4 5 10 9 9 9 9 7 7 6 7 9 12 15 23 28 26 21 17 14 15 19 22 22 24 25 22 18 12 5 1 8 10 13 14 13 16 19 21 24 24
9 5 4 5 9 6 8 6 3 3 3 4 8 7 2 10 3 14 21 21 16 13 13 16 20 23 25 24 23 23 21 18 13 7 3 3 4 4 5 6 12 15 20 24
1 4 2 5 6 2 2 5 4 4 6 6 8 5 4 7 11 9 14 17 14 13 13 15 18 20 22 23 22 23 22 22 18 13 9 4 4 4 7 8 11 13 15 16
7 5 3 4 1 2 4 4 7 8 3 3 7 4 3 4 7 6 12 17 14 13 14 14 15 17 19 19 20 20 20 20 21 20 17 13 8 7 4 4 7 8 10 11
4 7 5 2 2 3 2 3 4 3 2 5 7 6 6 3 11 11 16 19 16 13 13 14 15 16 16 16 15 16 17 19 18 17 16 18 15 16 12 8 6 6 8 9
4 5 6 5 2 2 5 3 3 5 2 7 5 7 5 5 20 26 24 20 15 13 12 12 12 11 12 13 13 13 12 13 14 14 15 13 15 17 15 15 14 11 9 10
3 2 3 2 2 3 2 3 1 2 2 1 5 6 10 8 10 17 20 19 14 10 8 6 6 8 8 8 9 11 13 12 11 10 11 13 16 15 15 15 15 15 14 13
3 4 3 3 4 4 2 1 2 0 3 5 5 5 7 8 9 11 12 14 9 5 4 3 4 6 6 7 9 11 12 16 16 16 17 18 17 16 17 18 18 18 18 18
4 0 3 5 3 2 2 3 4 4 5 3 9 7 5 7 8 9 10 7 2 1 3 3 6 5 6 6 9 11 13 15 17 18 17 17 18 18 20 19 18 19 20 22
2 1 4 7 10 8 7 11 6 4 6 6 11 13 5 9 9 11 9 7 5 5 5 5 2 2 6 9 11 14 18 21 22 22 23 22 22 23 22 22 22 22 21 21
2 1 2 9 2 4 3 3 4 8 0 9 9 6 5 9 8 9 11 13 12 9 5 4 3 4 8 11 14 17 19 23 25 25 26 26 27 27 27 26 26 25 24 23
3 2 5 8 9 9 6 12 12 3 5 10 14 18 22 7 6 13 17 15 11 7 6 7 6 8 8 11 13 16 19 21 23 25 27 29 28 29 30 32 33 34 33 33
3 6 7 13 13 13 10 14 16 13 15 15 23 22 23 21 12 2 4 4 4 4 9 9 8 11 13 14 16 18 21 22 23 23 25 27 29 32 34 36 37 40 40 40
4 4 1 7 4 8 15 21 16 17 20 21 21 23 17 11 7 3 4 3 3 5 8 9 9 10 12 13 16 21 24 26 26 27 29 30 32 34 38 40 41 41 41 43
2 3 2 6 1 3 8 19 18 15 18 17 18 12 2 3 4 5 4 6 9 9 9 9 13 15 15 16 16 19 21 21 24 30 33 35 37 38 39 39 40 42 44 45
4 4 2 4 4 4 9 2 4 8 10 5 1 3 6 4 2 5 7 14 12 7 8 12 13 15 20 24 24 23 26 25 32 35 37 38 38 41 43 45 47 48 50 52
16 7 4 3 6 8 12 8 9 5 12 1 3 6 6 4 8 10 7 3 6 11 13 14 15 17 19 21 25 28 30 33 36 38 39 39 40 43 47 50 53 55 55 57
7 11 6 2 4 7 1 5 5 2 10 8 7 5 3 3 1 5 10 16 20 19 18 17 18 21 24 25 28 31 34 36 39 38 41 44 47 48 49 50 51 53 52 54
3 1 11 12 7 7 1 6 7 4 10 7 13 6 7 5 12 24 20 18 18 16 16 18 22 23 24 27 31 34 37 38 41 44 48 51 51 52 51 52 51 52 52 53
6 5 4 2 3 10 3 5 6 4 2 6 12 17 18 22 27 21 20 20 17 15 20 24 26 25 27 30 34 36 40 45 49 51 52 53 52 52 52 51 51 49 45 44
3 7 4 8 5 4 10 13 14 16 17 24 23 25 27 28 23 22 21 17 19 22 23 25 26 28 29 31 34 39 44 48 50 50 51 51 51 51 48 46 43 42 39 37
5 17 7 1 8 16 33 32 31 33 32 28 23 27 25 24 25 23 22 23 24 23 24 25 26 28 29 31 36 42 44 44 46 48 49 49 49 49 44 41 40 40 40 39
12 3 9 14 16 26 31 33 35 36 34 33 31 27 25 27 24 22 23 23 23 24 23 24 25 27 30 35 40 40 39 41 44 45 46 47 47 43 41 39 38 36 37 38
23 21 14 13 19 22 24 29 27 24 24 20 24 28 29 29 27 23 22 23 23 23 22 23 24 27 32 37 38 36 36 37 40 43 44 43 41 41 40 40 42 35 33 34
Wind_Direction
192 208 206 226 231 245 322 299 296 299 304 289 293 308 291 280 282 291 287 295 100 89 76 52 44 50 56 55 60 60 225 221 241 252 252 241 235 243 245 240 241 240 246 257
139 225 235 262 297 299 290 295 282 274 277 331 297 295 286 279 270 266 280 82 84 76 65 54 54 54 56 57 53 55 65 119 217 228 225 229 227 236 247 258 248 241 247 253
224 253 315 260 262 273 265 260 280 286 336 288 276 262 258 265 253 81 79 81 73 70 64 57 53 55 56 55 54 51 52 63 74 181 234 235 226 234 231 239 244 249 243 247
228 293 294 262 259 256 278 293 308 308 317 238 49 299 278 265 309 89 86 82 79 73 70 58 53 53 54 54 52 50 48 49 56 75 128 200 195 209 195 267 275 272 261 255
200 138 150 232 236 108 240 2 326 286 259 300 246 252 251 232 124 119 98 102 96 88 73 60 58 56 54 52 53 53 50 48 45 47 53 65 137 158 187 222 260 275 277 280
245 147 213 220 52 212 44 284 256 239 214 266 230 206 333 62 151 113 107 104 98 82 73 65 53 56 56 53 49 47 48 53 48 45 43 38 38 60 68 241 284 291 297 294
157 197 181 160 208 130 132 275 323 310 147 219 42 330 247 201 164 157 133 114 102 89 73 64 51 41 38 35 41 41 36 38 39 39 41 43 43 47 42 25 351 320 299 298
228 302 134 169 236 76 205 210 190 257 243 295 326 247 234 89 87 101 108 105 93 78 62 48 41 37 27 20 18 24 34 33 27 23 25 24 30 38 37 34 23 5 331 297
346 238 115 137 60 118 13 171 339 278 337 66 242 272 297 132 93 100 100 91 82 69 54 50 17 19 22 15 12 15 23 34 36 32 23 17 22 19 15 21 12 8 3 355
44 299 291 112 124 219 217 41 332 154 235 251 253 294 268 43 138 106 89 90 85 76 66 48 12 5 9 15 11 19 31 30 31 30 28 27 24 16 10 11 2 358 353 350
69 229 243 347 192 194 241 250 217 246 215 245 274 266 60 78 87 101 98 101 119 309 315 319 316 326 345 12 14 9 11 16 11 10 12 13 9 3 4 2 353 350 349 346
127 273 260 246 291 287 266 270 250 220 260 255 259 265 46 101 104 130 164 194 224 252 283 268 199 355 352 354 8 2 358 0 1 356 354 358 354 352 350 348 342 339 336 334
122 185 298 322 286 34 111 54 326 315 275 256 270 260 134 138 169 195 231 258 249 243 257 301 341 1 350 351 351 352 352 348 347 345 343 343 343 341 337 336 334 332 331 328
44 235 193 229 258 338 316 302 287 209 275 285 269 285 288 256 221 236 251 257 229 226 234 270 305 316 323 328 332 339 343 341 335 331 330 330 331 328 326 325 323 320 321 322
188 242 219 258 274 290 296 280 279 275 266 260 273 277 276 287 303 356 301 99 139 234 254 254 251 279 301 306 312 322 330 333 328 324 320 320 320 320 319 317 315 312 312 311
197 251 243 281 271 277 275 270 270 270 268 266 267 269 284 3 29 72 54 27 319 333 315 313 269 282 285 287 289 303 313 318 321 324 319 314 313 313 312 310 308 306 304 303
275 159 99 254 137 317 294 253 249 253 255 259 268 274 347 21 54 59 26 296 288 290 305 303 303 281 284 287 289 289 293 292 300 309 313 312 312 311 309 307 306 305 305 303
207 141 161 258 67 241 250 212 317 288 282 284 262 167 186 169 347 318 300 281 274 279 289 287 283 289 296 293 288 288 296 299 307 313 315 315 313 310 310 308 306 303 301 299
224 211 236 211 204 279 302 292 293 309 290 25 263 191 166 13 313 287 304 331 305 294 291 287 294 297 296 292 293 298 302 310 313 313 312 310 307 305 304 302 301 299 298 295
201 214 202 179 212 226 125 95 140 95 272 219 184 134 99 301 261 266 301 297 295 292 291 289 292 294 291 296 301 305 308 311 313 312 309 308 306 303 300 299 296 294 290 289
139 249 220 236 247 262 190 121 99 123 270 157 162 182 248 215 255 290 284 282 283 284 284 275 283 289 294 299 304 308 311 313 313 312 310 308 307 307 305 302 299 298 294 291
161 174 212 178 240 274 172 123 167 210 181 208 218 256 262 286 299 286 282 275 278 271 267 274 289 296 304 308 312 314 315 315 314 312 311 311 311 311 310 309 307 305 300 293
253 202 195 187 200 208 213 222 235 259 273 286 275 277 279 286 280 287 280 271 265 268 272 284 293 300 306 311 314 313 313 314 313 312 313 314 315 316 315 314 313 312 309 298
259 237 236 92 247 254 265 265 269 276 282 283 276 286 287 283 281 279 263 263 269 276 282 289 299 305 310 314 313 314 316 315 314 315 316 319 320 320 319 318 315 310 305 300
230 184 234 246 253 257 262 264 269 272 277 277 279 276 282 280 273 263 259 265 273 280 284 294 302 307 311 313 314 317 319 317 317 317 320 324 323 319 318 316 314 307 302 299
237 240 240 244 244 249 252 263 271 270 264 271 279 283 283 277 271 265 261 266 271 276 287 295 300 307 312 314 316 322 319 319 319 322 326 322 323 327 322 319 316 316 302 300
Height
1517 1520 1522 1515 1512 1509 1512 1514 1515 1508 1503 1504 1504 1500 1497 1491 1486 1482 1482 1482 1481 1481 1485 1486 1486 1484 1480 1478 1476 1475 1476 1478 1479 1480 1482 1484 1487 1489 1491 1493 1496 1498 1498 1499
1519 1520 1508 1505 1507 1509 1509 1515 1513 1504 1499 1501 1500 1501 1493 1487 1480 1476 1477 1481 1485 1485 1486 1488 1487 1485 1481 1479 1478 1477 1475 1475 1476 1479 1480 1481 1482 1485 1487 1489 1492 1494 1495 1495
1511 1504 1501 1505 1507 1509 1509 1511 1508 1509 1504 1500 1499 1499 1492 1478 1472 1479 1482 1485 1487 1489 1491 1491 1489 1485 1483 1480 1480 1480 1480 1477 1477 1479 1479 1478 1479 1481 1485 1486 1488 1489 1490 1491
1504 1504 1504 1504 1506 1507 1513 1500 1499 1504 1508 1515 1499 1508 1485 1476 1476 1482 1485 1488 1492 1495 1495 1494 1492 1489 1486 1484 1484 1482 1482 1482 1480 1478 1478 1479 1477 1477 1480 1481 1482 1484 1486 1487
1502 1503 1505 1508 1504 1500 1503 1504 1504 1504 1509 1511 1506 1512 1477 1469 1483 1487 1489 1492 1493 1496 1498 1497 1494 1494 1492 1490 1486 1485 1484 1485 1485 1483 1480 1480 1476 1474 1475 1477 1479 1478 1478 1481
1497 1499 1501 1500 1499 1500 1502 1503 1503 1503 1508 1522 1494 1492 1486 1477 1482 1488 1492 1495 1499 1500 1499 1498 1498 1495 1492 1492 1491 1490 1488 1483 1486 1487 1485 1484 1481 1472 1472 1474 1475 1475 1474 1473
1497 1497 1494 1496 1500 1501 1505 1507 1521 1519 1524 1518 1493 1498 1484 1472 1472 1476 1487 1494 1499 1502 1501 1499 1498 1497 1496 1497 1494 1492 1491 1489 1487 1488 1489 1485 1485 1474 1472 1471 1471 1471 1472 1471
1501 1501 1493 1496 1495 1498 1500 1502 1523 1529 1522 1510 1497 1504 1484 1473 1476 1480 1488 1495 1500 1503 1503 1503 1501 1500 1498 1498 1499 1495 1491 1490 1489 1490 1488 1489 1481 1471 1473 1470 1471 1470 1470 1469
1497 1495 1492 1492 1493 1497 1498 1505 1498 1512 1520 1524 1497 1481 1472 1473 1485 1488 1493 1498 1502 1504 1504 1505 1504 1501 1500 1499 1497 1496 1494 1490 1488 1490 1490 1487 1475 1474 1475 1467 1469 1470 1469 1467
1498 1506 1491 1495 1494 1497 1500 1500 1510 1510 1518 1523 1494 1489 1482 1483 1489 1491 1495 1500 1503 1505 1506 1505 1503 1502 1500 1500 1499 1496 1493 1492 1489 1486 1482 1479 1478 1479 1476 1466 1468 1467 1467 1465
1499 1504 1499 1494 1495 1495 1502 1502 1503 1502 1506 1512 1504 1493 1482 1488 1492 1495 1497 1500 1502 1503 1503 1502 1500 1500 1500 1498 1496 1496 1492 1488 1489 1486 1480 1477 1477 1478 1471 1469 1470 1467 1465 1464
1501 1505 1512 1498 1493 1494 1496 1498 1500 1509 1504 1500 1494 1493 1487 1490 1494 1495 1496 1499 1497 1498 1501 1500 1498 1497 1498 1499 1493 1492 1490 1484 1481 1483 1482 1473 1473 1470 1469 1469 1470 1467 1462 1461
1501 1509 1520 1508 1492 1492 1494 1497 1499 1500 1507 1499 1502 1490 1487 1489 1492 1491 1491 1489 1492 1494 1497 1498 1494 1492 1491 1491 1491 1488 1484 1481 1479 1478 1478 1474 1468 1466 1467 1466 1466 1466 1460 1457
1502 1506 1511 1512 1496 1494 1505 1499 1499 1506 1508 1505 1498 1491 1481 1484 1488 1487 1486 1485 1487 1489 1492 1493 1492 1491 1491 1488 1489 1487 1485 1480 1479 1476 1473 1472 1466 1466 1463 1461 1459 1458 1455 1451
1503 1509 1507 1502 1500 1501 1504 1503 1498 1503 1500 1504 1488 1489 1479 1479 1480 1482 1482 1483 1485 1487 1488 1488 1488 1489 1489 1487 1486 1485 1483 1480 1479 1476 1473 1470 1466 1463 1458 1456 1453 1451 1447 1444
1500 1513 1507 1513 1506 1507 1506 1495 1497 1496 1492 1487 1482 1478 1477 1480 1479 1480 1481 1482 1483 1483 1484 1485 1483 1484 1484 1483 1482 1480 1478 1477 1475 1472 1469 1468 1463 1457 1454 1452 1449 1444 1440 1437
1505 1509 1523 1518 1504 1510 1521 1490 1490 1484 1480 1478 1481 1478 1481 1480 1479 1480 1481 1481 1481 1482 1483 1483 1483 1481 1481 1480 1478 1476 1474 1472 1470 1467 1463 1459 1454 1451 1449 1446 1441 1435 1431 1427
1504 1511 1516 1522 1521 1530 1479 1472 1477 1479 1475 1475 1477 1480 1478 1478 1479 1479 1480 1478 1478 1479 1479 1479 1478 1478 1477 1475 1471 1469 1467 1465 1462 1457 1452 1448 1444 1440 1436 1432 1428 1425 1421 1415
1494 1500 1506 1520 1520 1487 1477 1473 1475 1478 1475 1473 1475 1475 1475 1477 1477 1475 1476 1476 1476 1475 1474 1474 1473 1472 1470 1468 1465 1462 1460 1456 1452 1448 1443 1439 1435 1430 1425 1420 1415 1410 1405 1401
1487 1490 1500 1514 1513 1520 1467 1471 1472 1475 1479 1469 1469 1472 1474 1476 1481 1473 1473 1472 1471 1470 1469 1468 1467 1465 1463 1460 1457 1455 1451 1447 1442 1438 1434 1429 1424 1418 1412 1407 1402 1397 1393 1385
1502 1502 1493 1489 1493 1484 1468 1469 1471 1494 1476 1468 1469 1471 1472 1472 1471 1467 1467 1466 1465 1464 1464 1462 1460 1459 1457 1454 1451 1447 1442 1438 1433 1428 1422 1416 1410 1404 1399 1392 1387 1382 1376 1370
1484 1499 1502 1499 1500 1486 1465 1469 1477 1468 1465 1467 1467 1466 1466 1465 1463 1462 1460 1460 1460 1458 1457 1455 1454 1452 1450 1446 1443 1438 1433 1428 1422 1415 1409 1403 1397 1391 1384 1377 1370 1365 1360 1354
1484 1469 1479 1473 1474 1460 1460 1460 1460 1461 1461 1461 1461 1460 1459 1458 1456 1456 1454 1454 1453 1451 1450 1448 1446 1445 1443 1440 1435 1430 1425 1419 1411 1405 1398 1391 1385 1378 1372 1365 1358 1352 1348 1342
1461 1455 1458 1463 1457 1454 1453 1454 1455 1456 1454 1453 1453 1452 1452 1451 1449 1448 1447 1447 1446 1445 1442 1441 1439 1437 1435 1432 1428 1422 1416 1409 1402 1394 1387 1380 1373 1366 1361 1355 1350 1344 1339 1332
1452 1450 1450 1448 1449 1448 1446 1446 1446 1446 1445 1444 1445 1445 1443 1442 1441 1440 1439 1439 1438 1437 1436 1434 1432 1429 1427 1424 1419 1414 1408 1401 1393 1386 1379 1371 1365 1358 1351 1347 1342 1336 1331 1327
1441 1438 1440 1437 1437 1437 1435 1436 1437 1438 1437 1437 1437 1436 1435 1434 1433 1432 1432 1431 1431 1430 1429 1427 1425 1422 1420 1415 1410 1406 1400 1394 1386 1377 1371 1365 1356 1349 1343 1337 1330 1328 1323 1318